{"data":{"norad_id":67717,"intl_designator":"2026-025AA","name":"STARLINK-36385","alt_names":[],"object_type":"PAYLOAD","status":"ACTIVE","operator":null,"country":"US","launch_date":"2026-02-07","launch_site_code":"AFWTR","launch_vehicle":null,"mission":null,"orbit_class":"UNKNOWN","rcs_meters":null,"size_class":null,"mass_kg":null,"dimensions":null,"purposes":["comms"],"wikipedia_slug":null,"has_3d_model":false,"image_url":null,"decayed_at":null,"tle_current":{"epoch":"2026-09-19T13:20:24.858528Z","epoch_age_seconds":148048,"freshness":"FRESH","line1":"1 67717U 26025AA  26262.55584327  .00017685  00000+0  54869-3 0  9991","line2":"2 67717  97.2883  12.5147 0000491  93.0269 267.1030 15.33453413 35728","mean_motion":15.33453413,"eccentricity":4.91e-5,"inclination_deg":97.2883,"raan_deg":12.5147,"arg_perigee_deg":93.0269,"mean_anomaly_deg":267.103,"bstar":0.00054869,"rev_number":3572,"period_min":93.905689458334,"perigee_km":465.18211995608,"apogee_km":465.85416689116,"semimajor_km":6843.6551434236,"source":"CELESTRAK","updated_at":"2026-09-20T09:00:43.656047Z"}}}